FW0190 Weather Reports


Display with metric or nautical units.
time (UTC)temp
F
wind
direction
speed
MPH
gust
MPH
rain 1hr
in
rain 24hr
in
rain mn
in
humidity
%
barometer
mb
20260505121420 57 3 1.0 6.0 0.00 0.17 0.17 83 1008.8
20260505120916 57 279 2.0 3.0 0.00 0.17 0.17 83 1008.8
20260505120413 57 359 2.0 8.0 0.00 0.17 0.17 83 1008.8
20260505115911 57 208 2.0 4.0 0.00 0.17 0.17 84 1008.9
20260505115408 58 41 5.0 8.0 0.00 0.17 0.17 85 1009.0
20260505114906 58 6 4.0 8.0 0.00 0.17 0.17 85 1008.9
20260505114402 58 236 1.0 4.0 0.00 0.17 0.17 86 1009.0
20260505113859 58 311 1.0 4.0 0.00 0.17 0.17 86 1008.6
20260505113356 58 297 0.0 1.0 0.00 0.17 0.17 86 1008.9
20260505112851 58 275 0.0 2.0 0.00 0.17 0.17 86 1008.9
20260505112349 58 305 0.0 3.0 0.00 0.17 0.17 86 1009.1
20260505111845 58 343 3.0 3.0 0.00 0.17 0.17 86 1008.8
20260505111340 58 338 1.0 2.0 0.00 0.17 0.17 86 1008.4
20260505110836 58 343 2.0 3.0 0.00 0.17 0.17 86 1008.4
20260505110334 58 286 1.0 2.0 0.00 0.17 0.17 86 1008.1
20260505101809 58 248 0.0 1.0 0.00 0.17 0.17 86 1007.6
20260505101304 58 247 0.0 0.0 0.00 0.17 0.17 86 1007.0
20260505100800 58 329 2.0 2.0 0.00 0.17 0.17 86 1007.1
20260505100257 58 260 0.0 1.0 0.00 0.17 0.17 86 1007.3
20260505095753 58 291 0.0 0.0 0.00 0.17 0.17 86 1007.1
20260505095251 58 222 2.0 3.0 0.00 0.17 0.17 86 1007.1
20260505094746 58 184 2.0 3.0 0.00 0.17 0.17 86 1007.0
20260505094243 58 163 4.0 4.0 0.00 0.17 0.17 86 1007.0
20260505093739 58 221 2.0 3.0 0.00 0.17 0.17 86 1006.9
20260505093237 58 216 2.0 3.0 0.00 0.17 0.17 86 1006.8
20260505092733 58 168 2.0 3.0 0.00 0.17 0.17 86 1006.4
20260505092232 57 203 2.0 2.0 0.00 0.17 0.17 85 1006.5
20260505091728 57 206 2.0 3.0 0.00 0.17 0.17 85 1006.4
20260505091227 57 211 3.0 4.0 0.00 0.17 0.17 84 1006.9
20260505090724 57 266 0.0 1.0 0.00 0.17 0.17 84 1007.2
20260505090223 57 172 2.0 3.0 0.00 0.17 0.17 83 1007.3
20260505085719 58 181 2.0 2.0 0.00 0.17 0.17 83 1007.5
20260505085218 58 197 2.0 2.0 0.00 0.17 0.17 83 1007.5
20260505084714 58 212 2.0 2.0 0.00 0.17 0.17 82 1007.3
20260505084214 58 200 2.0 3.0 0.05 0.17 0.17 81 1006.9
20260505083710 58 251 0.0 0.0 0.05 0.17 0.17 81 1006.7
20260505083207 58 218 2.0 2.0 0.00 0.16 0.16 80 1006.4
20260505082702 59 229 1.0 2.0 0.07 0.16 0.16 80 1006.4
20260505082200 59 234 0.0 1.0 0.12 0.16 0.16 79 1006.8
20260505081655 59 253 0.0 2.0 0.05 0.15 0.15 77 1007.3
20260505081153 60 313 1.0 2.0 0.07 0.14 0.14 76 1007.8
20260505080650 60 236 0.0 0.0 0.07 0.13 0.13 75 1007.9
20260505080146 60 331 1.0 1.0 0.07 0.13 0.13 74 1008.3
20260505075642 60 288 0.0 0.0 0.05 0.12 0.12 73 1008.3
20260505075139 61 253 0.0 0.0 0.17 0.12 0.12 72 1007.9
20260505074636 61 248 0.0 0.0 0.19 0.11 0.11 70 1007.7
20260505074133 62 188 2.0 2.0 0.24 0.09 0.09 69 1007.7
20260505073631 63 218 1.0 2.0 0.35 0.08 0.08 66 1008.1
20260505073129 64 256 0.0 4.0 0.19 0.05 0.05 65 1008.6
20260505072624 64 307 1.0 2.0 0.12 0.02 0.02 63 1008.2
20260505072121 65 297 2.0 3.0 0.12 0.02 0.02 61 1008.0
20260505071617 65 302 1.0 2.0 0.00 0.00 0.00 59 1007.8
20260505071115 66 310 0.0 2.0 0.00 0.00 0.00 59 1007.6
20260505070612 66 359 1.0 1.0 0.00 0.00 0.00 58 1007.7
20260505070108 66 174 2.0 4.0 0.00 0.00 0.00 57 1007.5
20260505065604 66 344 4.0 11.0 0.00 0.00 0.00 57 1007.2
20260505065100 66 30 5.0 11.0 0.00 0.00 0.00 58 1007.6
20260505064557 67 10 6.0 9.0 0.00 0.00 0.00 61 1007.8
20260505064056 67 286 3.0 8.0 0.00 0.00 0.00 62 1008.3
20260505063553 67 283 1.0 4.0 0.00 0.00 0.00 62 1007.0
20260505063048 67 182 4.0 6.0 0.00 0.00 0.00 62 1006.3
20260505062545 67 230 2.0 4.0 0.00 0.00 0.00 62 1006.4
20260505062042 67 225 3.0 6.0 0.00 0.00 0.00 62 1006.1
20260505061540 67 203 3.0 6.0 0.00 0.00 0.00 62 1005.5
20260505061038 67 181 4.0 8.0 0.00 0.00 0.00 62 1005.3
20260505060535 67 228 3.0 7.0 0.00 0.00 0.00 62 1005.3
20260505060031 67 221 4.0 6.0 0.00 0.00 0.00 62 1005.6
20260505055527 67 200 4.0 6.0 0.00 0.00 0.00 61 1005.3
20260505055024 67 233 3.0 8.0 0.00 0.00 0.00 61 1005.3
20260505054521 67 185 5.0 9.0 0.00 0.00 0.00 61 1005.2
20260505054019 67 249 4.0 9.0 0.00 0.00 0.00 61 1004.8
20260505053516 67 162 4.0 7.0 0.00 0.00 0.00 61 1004.7
20260505053013 67 200 6.0 8.0 0.00 0.00 0.00 61 1004.7
20260505052510 67 198 3.0 8.0 0.00 0.00 0.00 61 1004.6
20260505052007 68 202 5.0 7.0 0.00 0.00 0.00 60 1004.8
20260505051504 68 233 3.0 7.0 0.00 0.00 0.00 60 1004.8
20260505051002 67 171 8.0 10.0 0.00 0.00 0.00 60 1004.8
20260505050500 68 204 4.0 7.0 0.00 0.00 0.00 60 1005.0
20260505041427 68 209 6.0 9.0 0.00 0.18 0.18 59 1004.6
20260505040925 68 203 2.0 9.0 0.00 0.18 0.18 60 1004.7
20260505040422 68 237 3.0 8.0 0.00 0.18 0.18 59 1004.8
20260505035919 68 165 4.0 8.0 0.00 0.18 0.18 59 1004.7
20260505035415 67 182 6.0 9.0 0.00 0.18 0.18 59 1004.7
20260505034912 67 215 6.0 9.0 0.00 0.18 0.18 60 1004.6
20260505034408 67 222 3.0 7.0 0.00 0.18 0.18 59 1004.7
20260505033906 67 213 3.0 9.0 0.00 0.18 0.18 60 1004.8
20260505033402 67 193 3.0 7.0 0.00 0.18 0.18 59 1004.9
20260505032901 68 180 3.0 8.0 0.00 0.18 0.18 59 1004.9
20260505032357 68 154 4.0 8.0 0.00 0.18 0.18 59 1004.9
20260505031854 68 222 5.0 9.0 0.00 0.18 0.18 59 1004.9
20260505031351 68 203 4.0 4.0 0.00 0.18 0.18 58 1004.9
20260505030848 68 212 3.0 9.0 0.00 0.18 0.18 58 1004.8
20260505030343 68 174 6.0 11.0 0.00 0.18 0.18 58 1004.6
20260505025839 68 187 6.0 9.0 0.00 0.18 0.18 58 1005.0
20260505025337 68 211 3.0 8.0 0.00 0.18 0.18 58 1004.9
20260505024836 68 174 7.0 9.0 0.00 0.18 0.18 58 1004.8
20260505024333 68 189 6.0 8.0 0.00 0.18 0.18 57 1004.6
20260505023830 69 206 6.0 8.0 0.00 0.18 0.18 57 1004.6
20260505023326 69 166 5.0 8.0 0.00 0.18 0.18 57 1004.6
20260505022824 69 189 6.0 8.0 0.00 0.18 0.18 57 1004.7
20260505022321 69 172 8.0 10.0 0.00 0.18 0.18 57 1004.5
20260505021818 69 188 6.0 11.0 0.00 0.18 0.18 57 1004.6
20260505021315 69 175 7.0 10.0 0.00 0.18 0.18 57 1004.7
20260505020810 69 175 7.0 11.0 0.00 0.18 0.18 57 1004.6
20260505020306 69 198 6.0 10.0 0.00 0.18 0.18 56 1004.9
20260505015803 70 208 5.0 13.0 0.00 0.18 0.18 55 1004.5
20260505015300 70 243 7.0 14.0 0.00 0.18 0.18 54 1004.5
20260505014757 71 173 6.0 9.0 0.00 0.18 0.18 53 1004.5
20260505014255 71 158 7.0 11.0 0.00 0.18 0.18 52 1004.5
20260505013751 71 231 2.0 8.0 0.00 0.18 0.18 50 1004.4
20260505013248 72 204 4.0 10.0 0.00 0.18 0.18 49 1004.3
20260505012746 72 189 5.0 13.0 0.00 0.18 0.18 49 1004.0
20260505012243 72 176 9.0 17.0 0.00 0.18 0.18 49 1004.0
20260505011739 72 179 7.0 15.0 0.00 0.18 0.18 49 1003.9
20260505011236 72 219 6.0 18.0 0.00 0.18 0.18 49 1003.7
20260505010732 72 188 8.0 10.0 0.00 0.18 0.18 49 1003.3
20260505010228 72 170 7.0 15.0 0.00 0.18 0.18 49 1003.3
20260505005725 72 191 11.0 14.0 0.00 0.18 0.18 49 1003.8
20260505005222 72 183 7.0 14.0 0.00 0.18 0.18 50 1003.9
20260505004719 71 217 4.0 9.0 0.00 0.18 0.18 49 1004.0
20260505004215 71 249 5.0 8.0 0.00 0.18 0.18 49 1004.1
20260505003713 71 189 5.0 9.0 0.00 0.18 0.18 49 1003.6
20260505003211 71 188 6.0 8.0 0.00 0.18 0.18 48 1003.8
20260505002707 72 205 3.0 6.0 0.00 0.18 0.18 48 1003.8
20260505002204 72 201 4.0 10.0 0.00 0.18 0.18 48 1003.7
20260505001701 72 171 9.0 11.0 0.00 0.18 0.18 47 1003.9
20260505001159 72 208 3.0 9.0 0.00 0.18 0.18 47 1003.9
20260505000656 72 181 2.0 10.0 0.00 0.18 0.18 46 1003.7
20260505000154 73 192 4.0 9.0 0.00 0.18 0.18 46 1003.6
20260504235650 73 166 6.0 9.0 0.00 0.18 0.18 46 1003.7
20260504235146 73 173 3.0 9.0 0.00 0.18 0.18 45 1003.8
20260504234644 74 192 4.0 9.0 0.00 0.18 0.18 44 1003.8
20260504234141 75 188 4.0 8.0 0.00 0.18 0.18 44 1003.8
20260504233636 75 201 3.0 4.0 0.00 0.18 0.18 45 1003.9
20260504233132 75 234 0.0 8.0 0.00 0.18 0.18 44 1004.0
20260504232631 75 179 10.0 17.0 0.00 0.18 0.18 43 1004.0
20260504232127 76 206 3.0 11.0 0.00 0.18 0.18 44 1004.1
20260504231624 76 242 3.0 6.0 0.00 0.18 0.18 43 1004.3
20260504231120 77 198 2.0 6.0 0.00 0.18 0.18 43 1004.1
20260504230616 77 231 4.0 7.0 0.00 0.18 0.18 42 1004.4
20260504230115 77 185 9.0 15.0 0.00 0.18 0.18 41 1004.2
20260504225613 78 215 2.0 8.0 0.00 0.18 0.18 40 1004.3
20260504225109 78 219 2.0 7.0 0.00 0.18 0.18 41 1004.2
20260504224606 78 171 6.0 9.0 0.00 0.18 0.18 42 1004.2
20260504224103 77 175 5.0 10.0 0.00 0.18 0.18 42 1004.3
20260504223600 77 198 5.0 10.0 0.00 0.18 0.18 42 1004.1
20260504223055 76 235 4.0 10.0 0.00 0.18 0.18 43 1004.1
20260504222553 75 198 2.0 9.0 0.00 0.18 0.18 44 1004.1
20260504222050 76 201 3.0 15.0 0.00 0.18 0.18 42 1004.1
20260504221547 77 216 5.0 11.0 0.00 0.18 0.18 43 1004.3
20260504221044 76 213 8.0 11.0 0.00 0.18 0.18 43 1004.1
20260504220540 75 198 5.0 10.0 0.00 0.18 0.18 44 1004.1
20260504220037 74 208 5.0 13.0 0.00 0.18 0.18 45 1004.2
20260504215534 74 188 9.0 13.0 0.00 0.18 0.18 46 1004.2
20260504215031 74 203 4.0 15.0 0.00 0.18 0.18 46 1004.5
20260504214527 74 169 10.0 15.0 0.00 0.18 0.18 47 1004.6
20260504214024 75 182 2.0 8.0 0.00 0.18 0.18 47 1004.9
20260504213521 74 177 4.0 8.0 0.00 0.18 0.18 50 1004.7
20260504213018 74 233 4.0 9.0 0.00 0.18 0.18 49 1004.8
20260504212513 74 193 2.0 8.0 0.00 0.18 0.18 49 1004.9
20260504212011 74 175 6.0 13.0 0.00 0.18 0.18 51 1004.6
20260504211508 73 178 3.0 4.0 0.00 0.18 0.18 55 1004.6
20260504211005 72 187 5.0 7.0 0.00 0.18 0.18 57 1004.6
20260504210502 71 196 4.0 8.0 0.00 0.18 0.18 57 1004.5
20260504205958 71 179 4.0 9.0 0.00 0.18 0.18 60 1004.6
20260504205456 71 233 3.0 8.0 0.00 0.18 0.18 60 1004.7
20260504204954 70 171 7.0 9.0 0.00 0.18 0.18 61 1004.9
20260504204452 70 153 4.0 9.0 0.00 0.18 0.18 60 1005.1
20260504203951 70 174 7.0 11.0 0.00 0.18 0.18 62 1005.4
20260504203448 70 170 6.0 8.0 0.00 0.18 0.18 64 1005.7
20260504202944 70 174 5.0 10.0 0.00 0.18 0.18 64 1005.8
20260504202441 70 190 7.0 8.0 0.00 0.18 0.18 64 1006.1
20260504201937 70 271 4.0 7.0 0.00 0.18 0.18 65 1006.2
20260504201435 69 162 5.0 8.0 0.00 0.18 0.18 65 1006.1
20260504200932 69 190 2.0 10.0 0.00 0.18 0.18 65 1006.3
20260504200429 69 166 5.0 9.0 0.00 0.18 0.18 66 1006.3
20260504195926 69 193 7.0 9.0 0.00 0.18 0.18 65 1006.4
20260504195421 69 183 6.0 11.0 0.00 0.18 0.18 65 1006.5
20260504194918 69 201 2.0 9.0 0.00 0.18 0.18 66 1006.6
20260504194414 68 220 5.0 11.0 0.00 0.18 0.18 65 1006.5
20260504193910 68 176 5.0 13.0 0.00 0.18 0.18 66 1006.3
20260504193408 68 175 10.0 17.0 0.00 0.18 0.18 66 1005.9
20260504192906 67 173 14.0 18.0 0.00 0.18 0.18 66 1005.9
20260504192403 67 161 9.0 14.0 0.00 0.18 0.18 67 1006.1
20260504191902 67 175 11.0 18.0 0.00 0.18 0.18 67 1006.6
20260504191400 68 184 8.0 14.0 0.00 0.18 0.18 66 1007.4
20260504190855 68 202 6.0 13.0 0.00 0.18 0.18 66 1007.4
20260504190351 69 184 5.0 13.0 0.00 0.18 0.18 64 1007.1
20260504185848 69 210 4.0 6.0 0.00 0.18 0.18 63 1007.1
20260504185345 69 209 3.0 4.0 0.00 0.18 0.18 62 1007.6
20260504184841 69 190 5.0 7.0 0.00 0.18 0.18 61 1006.7
20260504184337 70 175 5.0 6.0 0.00 0.18 0.18 61 1006.7
20260504183832 70 206 2.0 6.0 0.00 0.18 0.18 60 1007.0
20260504183330 71 170 2.0 7.0 0.00 0.18 0.18 61 1007.0
20260504182828 71 171 5.0 7.0 0.00 0.18 0.18 59 1007.2
20260504182325 71 168 4.0 7.0 0.00 0.18 0.18 59 1007.0
20260504181822 71 226 4.0 7.0 0.00 0.18 0.18 61 1007.0
20260504181319 71 167 2.0 10.0 0.00 0.18 0.18 60 1006.9
20260504180818 71 238 3.0 4.0 0.00 0.18 0.18 60 1007.0
20260504180316 71 183 5.0 8.0 0.00 0.18 0.18 61 1006.9
20260504175814 71 197 3.0 4.0 0.00 0.18 0.18 61 1006.7
20260504175310 71 192 3.0 4.0 0.00 0.18 0.18 60 1006.8
20260504174809 71 196 0.0 3.0 0.00 0.18 0.18 61 1006.6
20260504174306 70 222 0.0 4.0 0.00 0.18 0.18 60 1007.0
20260504173802 70 257 3.0 4.0 0.00 0.18 0.18 61 1007.0
20260504173259 70 212 3.0 4.0 0.00 0.18 0.18 62 1007.1
20260504172756 70 156 3.0 3.0 0.00 0.18 0.18 62 1007.2
20260504172253 70 162 4.0 7.0 0.00 0.18 0.18 61 1007.1
20260504171748 70 221 1.0 4.0 0.00 0.18 0.18 61 1007.2
20260504171246 70 214 4.0 4.0 0.00 0.18 0.18 63 1007.1
20260504170459 70 222 1.0 4.0 0.00 0.18 0.18 63 1007.6
20260504160419 70 227 3.0 6.0 0.00 0.18 0.18 64 1008.0
20260504150843 65 191 3.0 6.0 0.00 0.18 0.18 75 1008.1
20260504150339 65 159 6.0 9.0 0.00 0.18 0.18 76 1008.1
20260504141309 62 174 4.0 4.0 0.00 0.18 0.18 78 1008.8
20260504140806 61 256 2.0 9.0 0.00 0.18 0.18 79 1008.7
20260504140302 61 208 6.0 9.0 0.00 0.18 0.18 80 1008.8
20260504130730 57 197 4.0 6.0 0.00 0.18 0.18 85 1009.1
20260504130226 57 192 4.0 7.0 0.00 0.18 0.18 84 1008.8